When you browse on this site, cookies collect data to enhance your experience and personalize the content and advertising you see.
Visit our Privacy Policy to learn more. By continuing to use the site, you agree to this use of cookies and data.
  • In Hungary
  • List of Countries
  • For 7 days
  • Water Temperature
  • Weather Map
  • News
  • Weather Widgets
  • user-avatar
    Login

    Hourly Weather Ploskow

    Today, 19 September, Thursday

    Time Temperature Precipitation Wind Pressure Humidity
    00:00 +5°C° 0 mm 4 mps 748 mmHg 89%
    01:00 +5°C° 0 mm 4 mps 748 mmHg 90%
    02:00 +5°C° 0 mm 4 mps 748 mmHg 90%
    03:00 +4°C° 0 mm 4 mps 748 mmHg 91%
    04:00 +4°C° 0 mm 4 mps 748 mmHg 92%
    05:00 +4°C° 0 mm 4 mps 749 mmHg 93%
    06:00 +5°C° 0 mm 4 mps 749 mmHg 91%
    07:00 +6°C° 0 mm 4 mps 749 mmHg 90%
    08:00 +7°C° 0 mm 5 mps 749 mmHg 88%
    09:00 +8°C° 0.1 mm 5 mps 749 mmHg 80%
    10:00 +10°C° 0.1 mm 5 mps 750 mmHg 72%
    11:00 +12°C° 0.1 mm 5 mps 750 mmHg 64%
    12:00 +13°C° 0.3 mm 5 mps 750 mmHg 62%
    13:00 +13°C° 0.3 mm 5 mps 750 mmHg 59%
    14:00 +14°C° 0.3 mm 6 mps 750 mmHg 57%
    15:00 +14°C° 0.1 mm 5 mps 750 mmHg 58%
    16:00 +13°C° 0.1 mm 5 mps 750 mmHg 59%
    17:00 +13°C° 0.1 mm 4 mps 750 mmHg 60%
    18:00 +12°C° 0.2 mm 4 mps 750 mmHg 66%
    19:00 +10°C° 0.2 mm 4 mps 750 mmHg 72%
    20:00 +9°C° 0.2 mm 3 mps 750 mmHg 78%
    21:00 +8°C° 0 mm 3 mps 751 mmHg 80%
    22:00 +6°C° 0 mm 4 mps 751 mmHg 83%
    23:00 +6°C° 0 mm 4 mps 751 mmHg 86%

    Tomorrow, 20 September, Friday

    Time Temperature Precipitation Wind Pressure Humidity
    00:00 +5°C° 0 mm 4 mps 751 mmHg 89%
    01:00 +5°C° 0 mm 4 mps 751 mmHg 91%
    02:00 +5°C° 0 mm 4 mps 752 mmHg 94%
    03:00 +5°C° 0 mm 4 mps 752 mmHg 94%
    04:00 +4°C° 0 mm 4 mps 752 mmHg 94%
    05:00 +4°C° 0 mm 4 mps 752 mmHg 95%
    06:00 +4°C° 0 mm 4 mps 752 mmHg 91%
    07:00 +5°C° 0 mm 4 mps 752 mmHg 88%
    08:00 +6°C° 0 mm 4 mps 752 mmHg 84%
    09:00 +7°C° 0 mm 5 mps 753 mmHg 75%
    10:00 +9°C° 0 mm 5 mps 753 mmHg 65%
    11:00 +10°C° 0 mm 6 mps 753 mmHg 55%
    12:00 +12°C° 0.1 mm 5 mps 753 mmHg 54%
    13:00 +12°C° 0.1 mm 5 mps 753 mmHg 52%
    14:00 +12°C° 0.1 mm 5 mps 752 mmHg 51%
    15:00 +12°C° 0.1 mm 5 mps 752 mmHg 53%
    16:00 +12°C° 0.1 mm 4 mps 753 mmHg 55%
    17:00 +12°C° 0.1 mm 4 mps 753 mmHg 57%
    18:00 +10°C° 0 mm 3 mps 753 mmHg 64%
    19:00 +9°C° 0 mm 3 mps 753 mmHg 70%
    20:00 +8°C° 0 mm 2 mps 753 mmHg 77%
    21:00 +7°C° 0 mm 2 mps 753 mmHg 78%
    22:00 +7°C° 0 mm 2 mps 753 mmHg 78%
    23:00 +6°C° 0 mm 2 mps 753 mmHg 79%

    Day after tomorrow, 21 September, Saturday

    Time Temperature Precipitation Wind Pressure Humidity
    00:00 +5°C° 0 mm 3 mps 753 mmHg 77%
    01:00 +5°C° 0 mm 3 mps 753 mmHg 76%
    02:00 +5°C° 0 mm 3 mps 752 mmHg 74%
    03:00 +5°C° 0 mm 3 mps 752 mmHg 75%
    04:00 +5°C° 0 mm 4 mps 752 mmHg 76%
    05:00 +5°C° 0 mm 4 mps 752 mmHg 77%
    06:00 +6°C° 0 mm 5 mps 752 mmHg 77%
    07:00 +7°C° 0 mm 5 mps 752 mmHg 76%
    08:00 +8°C° 0 mm 6 mps 752 mmHg 76%
    09:00 +10°C° 0 mm 6 mps 752 mmHg 73%
    10:00 +13°C° 0 mm 6 mps 751 mmHg 70%
    11:00 +14°C° 0 mm 7 mps 751 mmHg 68%
    12:00 +15°C° 0 mm 7 mps 751 mmHg 66%
    13:00 +16°C° 0 mm 7 mps 751 mmHg 65%
    14:00 +16°C° 0 mm 7 mps 751 mmHg 63%
    15:00 +16°C° 0 mm 6 mps 751 mmHg 64%
    16:00 +16°C° 0 mm 6 mps 750 mmHg 64%
    17:00 +16°C° 0 mm 5 mps 750 mmHg 64%
    18:00 +15°C° 0 mm 4 mps 750 mmHg 69%
    19:00 +14°C° 0 mm 4 mps 750 mmHg 73%
    20:00 +13°C° 0 mm 3 mps 750 mmHg 77%
    21:00 +12°C° 0 mm 3 mps 750 mmHg 81%
    22:00 +11°C° 0 mm 3 mps 750 mmHg 85%
    23:00 +10°C° 0 mm 3 mps 750 mmHg 89%

    22 September, Sunday

    Time Temperature Precipitation Wind Pressure Humidity
    00:00 +10°C° 0 mm 3 mps 750 mmHg 90%
    01:00 +10°C° 0 mm 3 mps 750 mmHg 92%
    02:00 +9°C° 0 mm 3 mps 750 mmHg 93%
    03:00 +9°C° 0 mm 3 mps 750 mmHg 93%
    04:00 +9°C° 0 mm 3 mps 750 mmHg 94%
    05:00 +9°C° 0 mm 2 mps 750 mmHg 94%
    06:00 +9°C° 0 mm 2 mps 750 mmHg 91%
    07:00 +10°C° 0 mm 3 mps 750 mmHg 88%
    08:00 +11°C° 0 mm 3 mps 750 mmHg 85%
    09:00 +13°C° 0 mm 3 mps 750 mmHg 77%
    10:00 +16°C° 0 mm 2 mps 750 mmHg 69%
    11:00 +18°C° 0 mm 2 mps 750 mmHg 61%
    12:00 +19°C° 0 mm 2 mps 750 mmHg 57%
    13:00 +20°C° 0 mm 2 mps 749 mmHg 54%
    14:00 +21°C° 0 mm 2 mps 749 mmHg 50%
    15:00 +22°C° 0 mm 1 mps 749 mmHg 51%
    16:00 +21°C° 0 mm 1 mps 748 mmHg 53%
    17:00 +19°C° 0 mm 0 mps 748 mmHg 55%
    18:00 +19°C° 0 mm 1 mps 748 mmHg 60%
    19:00 +18°C° 0 mm 1 mps 748 mmHg 64%
    20:00 +15°C° 0 mm 1 mps 748 mmHg 69%
    21:00 +14°C° 0 mm 2 mps 748 mmHg 72%
    22:00 +14°C° 0 mm 2 mps 748 mmHg 75%
    23:00 +12°C° 0 mm 3 mps 748 mmHg 77%

    23 September, Monday

    Time Temperature Precipitation Wind Pressure Humidity
    00:00 +12°C° 0 mm 3 mps 748 mmHg 80%
    01:00 +11°C° 0 mm 3 mps 747 mmHg 82%
    02:00 +11°C° 0 mm 3 mps 747 mmHg 85%
    03:00 +10°C° 0 mm 3 mps 747 mmHg 85%
    04:00 +10°C° 0 mm 3 mps 746 mmHg 86%
    05:00 +10°C° 0 mm 4 mps 746 mmHg 86%
    06:00 +10°C° 0 mm 4 mps 745 mmHg 83%
    07:00 +11°C° 0 mm 4 mps 745 mmHg 79%
    08:00 +12°C° 0 mm 4 mps 744 mmHg 76%
    09:00 +13°C° 0 mm 4 mps 744 mmHg 70%
    10:00 +14°C° 0 mm 4 mps 744 mmHg 63%
    11:00 +17°C° 0 mm 4 mps 744 mmHg 57%
    12:00 +17°C° 0 mm 3 mps 743 mmHg 59%
    13:00 +17°C° 0 mm 3 mps 743 mmHg 61%
    14:00 +17°C° 0 mm 3 mps 742 mmHg 63%
    15:00 +16°C° 0 mm 2 mps 742 mmHg 66%
    16:00 +16°C° 0 mm 2 mps 742 mmHg 70%
    17:00 +16°C° 0 mm 2 mps 741 mmHg 73%
    18:00 +15°C° 0 mm 2 mps 741 mmHg 76%
    19:00 +15°C° 0 mm 2 mps 741 mmHg 79%
    20:00 +14°C° 0 mm 1 mps 741 mmHg 82%
    21:00 +14°C° 0 mm 1 mps 741 mmHg 84%
    22:00 +14°C° 0 mm 1 mps 741 mmHg 86%
    23:00 +14°C° 0 mm 1 mps 740 mmHg 87%

    24 September, Tuesday

    Time Temperature Precipitation Wind Pressure Humidity
    00:00 +13°C° 0 mm 1 mps 740 mmHg 88%
    01:00 +12°C° 0 mm 0 mps 740 mmHg 90%
    02:00 +12°C° 0 mm 0 mps 740 mmHg 91%
    03:00 +11°C° 0 mm 0 mps 740 mmHg 91%
    04:00 +11°C° 0 mm 0 mps 740 mmHg 92%
    05:00 +11°C° 0 mm 0 mps 740 mmHg 93%
    06:00 +12°C° 0 mm 1 mps 740 mmHg 91%
    07:00 +13°C° 0 mm 1 mps 740 mmHg 89%
    08:00 +13°C° 0 mm 1 mps 740 mmHg 87%
    09:00 +15°C° 0 mm 2 mps 740 mmHg 81%
    10:00 +16°C° 0 mm 2 mps 741 mmHg 75%
    11:00 +17°C° 0 mm 2 mps 741 mmHg 68%
    12:00 +17°C° 0 mm 3 mps 741 mmHg 66%
    13:00 +17°C° 0 mm 3 mps 741 mmHg 64%
    14:00 +18°C° 0 mm 4 mps 741 mmHg 61%
    15:00 +15°C° 0 mm 4 mps 742 mmHg 62%
    16:00 +14°C° 0 mm 5 mps 742 mmHg 63%
    17:00 +13°C° 0 mm 5 mps 742 mmHg 64%
    18:00 +12°C° 0 mm 5 mps 743 mmHg 66%
    19:00 +10°C° 0 mm 4 mps 743 mmHg 68%
    20:00 +8°C° 0 mm 4 mps 744 mmHg 70%
    21:00 +8°C° 0 mm 4 mps 744 mmHg 71%
    22:00 +7°C° 0 mm 4 mps 744 mmHg 72%
    23:00 +7°C° 0 mm 4 mps 745 mmHg 73%
    Show more